sat.trackr.live / text

‹ back to catalog

STARLINK-36286

NORAD 69162 · 2026-111Q

PAYLOAD ACTIVE UNKNOWN

§ Identity

Operator
Country
US
Launch date
2026-05-21
Launch site
AFETR
Launch vehicle
Mass (kg)
RCS (m²)

Purposes: comms

External: N2YO · Heavens-Above · Gunter

§ Orbital elements

Epoch: 2026-09-19T19:37:07.260960Z

Period
93.85 min
Inclination
53.1579°
Eccentricity
0.0002798
Mean motion
15.34403531 rev/d
Perigee alt
460.8 km
Apogee alt
464.6 km
Semi-major
6,840.8 km
B*
4.6643e-4
RAAN
68.9402°
Arg perigee
17.8001°
Mean anomaly
342.3099°
Rev number
1,879

§ Raw data

STARLINK-362861 69162U 26111Q   26262.81744515  .00015418  00000+0  46643-3 0  99922 69162  53.1579  68.9402 0002798  17.8001 342.3099 15.34403531 18792

JSON: /api/v1/satellites/69162 · /tle

For live sub-satellite position, see the globe view (requires WebGL).

§ Visibility from observer

Set your observer location to see the next 7 days of passes ≥ 10°. The values pass through the URL so the page stays shareable.

No JS? Fill the form by hand. The geolocation button needs JavaScript.